Voltar ao catálogo

CZ-6A R/B

AtivoPO
NORAD 62237·ROCKET BODY·🇨🇳 China

Lançado Dec 5, 2024 de Taiyuan Satellite Launch Center

Loading…

Próximas Passagens (próximas 24 horas)

TLE

AtualizadoSource: Space-Track

Época: Sep 14, 2026, 21:02 UTC

1 62237U 24232A   26257.87684812  .00000221  00000-0  46952-4 0  9994
2 62237  89.0435   4.8669 0100060  57.3438 303.7374 14.51922452142437

Acompanhe CZ-6A R/B em tempo real com AllMySat

Download on the App Store